DO7VLR-5 Weather Reports


time (UTC)temp
F
wind
direction
speed
knots
gust
knots
rain 1hr
in
rain 24hr
in
rain mn
in
humidity
%
barometer
mb
20260502163015 77 158 3.5 11.3 0.00 0.00 0.00 32 1016.2
20260502123017 77 180 3.5 10.4 0.00 0.00 0.00 46 1019.1
20260502113017 75 180 3.5 10.4 0.00 0.00 0.00 48 1019.7
20260502110016 74 180 3.5 9.6 0.00 0.00 0.00 48 1020.1
20260502103016 73 158 3.5 10.4 0.00 0.00 0.00 49 1020.4
20260502070018 54 113 0.9 3.5 0.00 0.00 0.00 72 1021.8
20260502063016 51 113 0.9 1.7 0.00 0.00 0.00 75 1021.9
20260502060016 47 90 0.9 2.6 0.00 0.00 0.00 80 1022.0
20260502053016 45 0.0 1.7 0.00 0.00 0.00 83 1022.1
20260502050016 43 0.0 0.9 0.00 0.00 0.00 86 1021.9
20260502043015 42 0.0 0.0 0.00 0.00 0.00 90 1021.9
20260502040016 41 0.0 0.0 0.00 0.00 0.00 89 1021.8
20260502033015 42 0.0 0.0 0.00 0.00 0.00 89 1021.7
20260502030015 42 0.0 0.9 0.00 0.00 0.00 88 1021.7
20260502023018 42 0.0 1.7 0.00 0.00 0.00 88 1021.8
20260502020015 43 0.0 2.6 0.00 0.00 0.00 86 1021.7
20260502013016 43 0 0.9 5.2 0.00 0.00 0.00 84 1021.7
20260502010017 44 158 0.9 4.3 0.00 0.00 0.00 82 1021.9
20260502003017 45 0.0 0.9 0.00 0.00 0.00 80 1022.0
20260502000017 46 293 0.9 2.6 0.00 0.00 0.00 80 1022.3
20260501233017 46 0.0 2.6 0.00 0.00 0.00 77 1022.2
20260501230017 48 0.0 1.7 0.00 0.00 0.00 75 1022.4
20260501223017 48 0.0 1.7 0.00 0.00 0.00 73 1022.4
20260501220017 50 0.0 0.9 0.00 0.00 0.00 69 1022.2
20260501213016 51 0.0 0.0 0.00 0.00 0.00 66 1022.3
20260501210016 53 0.0 0.9 0.00 0.00 0.00 61 1022.2
20260501203016 54 0.0 1.7 0.00 0.00 0.00 57 1022.3
20260501200016 57 0.0 1.7 0.00 0.00 0.00 52 1022.2
20260501193015 59 0.0 1.7 0.00 0.00 0.00 47 1022.0
20260501190015 61 270 0.9 1.7 0.00 0.00 0.00 41 1022.0
20260501183015 63 293 0.9 2.6 0.00 0.00 0.00 42 1021.8
20260501180016 67 90 1.7 6.1 0.00 0.00 0.00 34 1021.7
20260501173017 70 113 2.6 7.8 0.00 0.00 0.00 32 1021.8
20260501170017 74 90 2.6 7.8 0.00 0.00 0.00 24 1022.0